Regional Weather Roundup
Issued by NWS Portland, ME

Home | Current Version | Previous Version | Text Only | Print | Product List | Glossary On
Versions: 1 2 3 4 5 6 7 8 9 10 11 12 13 14 15 16 17 18 19 20 21 22 23 24 25 26 27 28 29 30 31 32 33 34 35 36 37 38 39 40 41 42 43 44 45 46 47 48 49 50
000
ASUS41 KGYX 231533
RWRGYX
WEATHER ROUNDUP FOR MAINE AND NEW HAMPSHIRE
NATIONAL WEATHER SERVICE GRAY ME
1100 AM EDT MON APR 23 2018

MEZ002-005-006-010-012-015-018-020-021-024-026-027-029-231600-
MAINE

CITY           SKY/WX    TMP DP  RH WIND       PRES   REMARKS
PORTLAND       NOT AVBL
SANFORD        FAIR      57  15  19 NE5       30.48F
BAR HARBOR     FAIR      55  17  22 VRB6      30.46F
WISCASSET      NOT AVBL
ROCKLAND       FAIR      54  23  30 S8        30.46F
FRYEBURG       FAIR      58  16  19 VRB6      30.47F
LEWISTONAUBURN FAIR      55  12  18 CALM      30.47F
AUGUSTA        NOT AVBL
WATERVILLE     FAIR      56  14  19 W9        30.44F
BANGOR         NOT AVBL
GREENVILLE       N/A     48  16  27 NW10      30.41S
MILLINOCKET    NOT AVBL
CLAYTON LAKE     N/A     53  13  20 VRB3G14   30.39F
HOULTON        NOT AVBL
PRESQUE ISLE   FAIR      49  15  25 VRB5      30.42S
FRENCHVILLE    NOT AVBL
CARIBOU        FAIR      48  16  27 NW8       30.39F
$$

NHZ002-005-008-009-011-012-014-231600-
NEW HAMPSHIRE

CITY           SKY/WX    TMP DP  RH WIND       PRES   REMARKS
PORTSMOUTH     MOSUNNY   57  14  18 NE5       30.48F
ROCHESTER      NOT AVBL
NASHUA         FAIR      56  16  20 VRB5      30.50F
MANCHESTER     NOT AVBL
CONCORD        NOT AVBL
LACONIA        FAIR      56  15  20 VRB3      30.48F
PLYMOUTH       FAIR      58  13  16 CALM      30.47F
BERLIN         NOT AVBL
WHITEFIELD     NOT AVBL
JAFFREY        NOT AVBL
KEENE          FAIR      61  19  19 CALM      30.49F
LEBANON        NOT AVBL
MT WASHINGTON  MOSUNNY   28   9  43 E5          N/A
$$

VTZ005-007-008-231600-
VERMONT

CITY           SKY/WX    TMP DP  RH WIND       PRES   REMARKS
ST JOHNSBURY     N/A     53  19  26 MISG      30.47F
BURLINGTON     FAIR      58  14  17 W5        30.48F
$$

MAZ007-012-024-CTZ003-RIZ002-NYZ038-NYZ072-231600-
SOUTHERN NEW ENGLAND AND NY

CITY           SKY/WX    TMP DP  RH WIND       PRES   REMARKS
BOSTON         FAIR      54  21  27 SE10      30.51S
WORCESTER      FAIR      53  16  23 S3        30.48S
$$

ANZ081-ANZ082-ANZ150-NHZ014-MEZ023>029-231600-
COASTAL MARINE OBSERVATIONS

STATION/POSITION TIME  TEMP    WIND        PRES    WAVE
                       AIR SEA DIR/SP/G            HT/PER
                 (UTC) (F)     (DEG/KT/KT) (MB)    (FT/S)
MOUNT DESERT ROC 1500   42     250/  6/  7 1031.9F
MATINICUS ROCK   1500   43     250/  5/  5 1031.9F
ISLE OF SHOALS   1500   52     180/  2/  2 1032.6F
JEFFREYS LEDGE   1506      44                N/A     1/14
CASHES LEDGE BUO 1450   46 42              1032.9R   1/14
$$

.............KEY..............
   WCI - WIND CHILL
   TC  - TEMPERATURE IN CELSIUS
   VSB - VISIBILITY IN MILES
   HX  - HEAT INDEX
   FAIR- INDICATES FEW OR NO CLOUDS BELOW 12,000 FT, WITH NO
         SIGNIFICANT WEATHER AND/OR OBSTRUCTIONS TO VISIBILITY.






USA.gov is the U.S. government's official web portal to all federal, state and local government web resources and services.